329395 (2002 AC) |
Classification: Apollo [NEO] SPK-ID: 2329395 |
[ hide orbit diagram ]
For accurate long-term ephemerides, please instead use our Horizons system.This orbit viewer was implemented using two-body methods, and hence should not be used for determining accurate long-term trajectories (over several years or decades) or planetary encounter circumstances.
Orbital Elements at Epoch 2459000.5 (2020-May-31.0) TDB
Reference: JPL 25 (heliocentric ecliptic J2000)
Element | Value | Uncertainty (1-sigma) | Units |
e | .648572026612404 | 1.9585e-07 | |
a | 2.253783300407735 | 1.3312e-08 | au |
q | .7920424977170978 | 4.4157e-07 | au |
i | 34.75430408828051 | 2.7181e-05 | deg |
node | 72.95126898843216 | 3.6975e-05 | deg |
peri | 132.1682626234533 | 4.1102e-05 | deg |
M | 136.1871625174358 | 2.0688e-05 | deg |
tp | 2458532.979851268209 (2019-Feb-18.47985127) | 6.7888e-05 | TDB |
period | 1235.852560786678 3.38 | 1.095e-05 2.998e-08 | d yr |
n | .2912968839671644 | 2.5809e-09 | deg/d |
Q | 3.715524103098372 | 2.1946e-08 | au |
|
| | Orbit Determination Parameters
Additional Information
|
[ show covariance matrix ]
Physical Parameter Table
Parameter |
Symbol |
Value |
Units |
Sigma |
Reference |
Notes |
absolute magnitude |
H |
18.0 |
|
n/a |
MPO471417 |
|
|
329395 (2002 AC) Discovered 2002-Jan-03 by LINEAR at Socorro |
Reference: 20120604/Numbers.arc | Last Updated: 2012-06-06 |
|
[ show close-approach data ]
|